Location: Praha
(50.0830°N, 14.4670°E)
Time: 06:06:08
(UTC+01:00)

ISS - Pass Details

Date: 23 February 2020
Orbit: 415 x 423 km, 51.6° (Epoch: 27 February)

Event Time Altitude Azimuth Distance (km) Brightness Sun altitude
Exits shadow 05:54:53 - 213° (SSW) 2,237 -0.4 -11.0°
Reaches altitude 10° 05:56:53 10° 201° (SSW) 1,496 -1.1 -10.7°
Maximum altitude 05:59:41 25° 144° (SE) 901 -1.6 -10.2°
Drops below altitude 10° 06:02:30 10° 88° (E) 1,507 0.7 -9.8°
Sets 06:04:50 0° 74° (ENE) 2,376 1.6 -9.4°
